This is the latest recevied weather packets stored in our database for station/object KG7BDA. If no packets are shown the sender has not sent any weather packets the latest 10 day(s).
| Time | Temp. | Humidity | Pressure | Rain* | Wind** | Luminosity | Snow |
|---|---|---|---|---|---|---|---|
| 1777975399 | 12.22° C | 56% | 1007 hPa | 0 mm | - | - | - |
| 1777975040 | 12.78° C | 55% | 1007 hPa | 0 mm | - | - | - |
| 1777974680 | 12.78° C | 55% | 1007 hPa | 0 mm | - | - | - |
| 1777974319 | 13.33° C | 54% | 1006.8 hPa | 0 mm | - | - | - |
| 1777973959 | 12.78° C | 55% | 1006.8 hPa | 0 mm | - | - | - |
| 1777973599 | 13.33° C | 54% | 1006.8 hPa | 0 mm | - | - | - |
| 1777973239 | 13.33° C | 54% | 1006.6 hPa | 0 mm | - | - | - |
| 1777972879 | 13.33° C | 54% | 1006.5 hPa | 0 mm | - | - | - |
| 1777972519 | 13.33° C | 53% | 1006.5 hPa | 0 mm | - | - | - |
| 1777972159 | 13.33° C | 54% | 1006.5 hPa | 0 mm | - | - | - |
| 1777971832 | 12.78° C | 56% | 1006.5 hPa | 0 mm | - | - | - |
| 1777971800 | 12.78° C | 56% | 1006.5 hPa | 0 mm | - | - | - |
| 1777971440 | 13.33° C | 54% | 1006.7 hPa | 0 mm | - | - | - |
| 1777971079 | 13.89° C | 54% | 1006.8 hPa | 0 mm | - | - | - |
| 1777970719 | 13.33° C | 54% | 1006.7 hPa | 0 mm | - | - | - |
| 1777970358 | 13.33° C | 54% | 1006.5 hPa | 0 mm | - | - | - |
| 1777969999 | 13.33° C | 55% | 1006.2 hPa | 0 mm | - | - | - |
| 1777969640 | 13.33° C | 55% | 1006 hPa | 0 mm | - | - | - |
| 1777969280 | 12.78° C | 56% | 1006.1 hPa | 0 mm | - | - | - |
| 1777968919 | 12.78° C | 57% | 1006 hPa | 0 mm | - | - | - |
| 1777968560 | 12.78° C | 57% | 1006 hPa | 0 mm | - | - | - |
| 1777968199 | 12.78° C | 57% | 1006 hPa | 0 mm | - | - | - |
| 1777967839 | 12.22° C | 57% | 1006 hPa | 0 mm | - | - | - |
| 1777967478 | 12.78° C | 57% | 1005.9 hPa | 0 mm | - | - | - |
| 1777967119 | 13.33° C | 55% | 1006 hPa | 0 mm | - | - | - |
* Rain latest hour (hover to see other rain measurements)
** Current wind speed in m/s (hover to see current wind gust speed)